Location: Allens Landing
(37.8284°N, 89.7284°W)
Time: 13:57:47
(UTC+00:00)

BlueWalker 3 - Visible Passes

Search period start: 13 October 2024 00:00
Search period end: 23 October 2024 00:00
Orbit: 472 x 484 km, 53.2° (Epoch: 12 October)

Date Brightness Start Highest point End Pass type
(mag) Time Alt. Az. Time Alt. Az. Time Alt. Az.
15 Oct 4.5 11:33:03 10° N 11:33:56 11° NNE 11:34:47 10° NNE visible
16 Oct 4.7 11:05:10 10° NNE 11:05:18 10° NNE 11:05:25 10° NNE visible
19 Oct 3.7 11:15:07 10° NNW 11:18:15 25° NNE 11:21:21 10° E visible
20 Oct 3.9 10:46:59 12° NNW 10:49:32 23° NNE 10:52:32 10° E visible
21 Oct 3.9 10:19:45 19° N 10:20:47 21° NNE 10:23:38 10° E visible
22 Oct 4.3 09:52:35 18° NE 09:52:35 18° NE 09:54:42 10° ENE visible
22 Oct 1.8 11:26:46 11° NW 11:30:14 64° SW 11:33:53 10° SE visible
